Location: Home
(42.5358°N, 72.7383°W)
Time: 21:16:05
(UTC-05:00)

Vanguard 2 Rocket - Pass Details

Date: 01 December 2021
Orbit: 554 x 3325 km, 32.9° (Epoch: 21 January)

Event Time Altitude Azimuth Distance (km) Brightness Sun altitude
Rises 01:10:28 0° 273° (W) 5,837 - -62.0°
Reaches altitude 10° 01:14:56 10° 261° (W) 5,220 - -61.4°
Maximum altitude 01:26:50 25° 215° (SW) 4,787 - -59.6°
Drops below altitude 10° 01:41:09 10° 169° (S) 6,274 - -57.4°
Exits shadow 01:41:22 10° 169° (SSE) 6,305 11.0 -57.3°
Sets 01:47:26 0° 158° (SSE) 7,219 11.5 -56.4°
